Вернуться в каталог

COSMOS 2251 DEB

АктивенVLEO
NORAD 34452·DEBRIS·🇷🇺 Russia

Запущен Jun 16, 1993 с Plesetsk Cosmodrome

Loading…

Ближайшие Пролёты (ближайшие 24 часа)

TLE

СвежийSource: Space-Track

Эпоха: Sep 14, 2026, 12:44 UTC

1 34452U 93036SV  26257.53087099  .00009657  00000-0  43610-3 0  9996
2 34452  74.0278 327.7827 0056899 329.7727  30.0191 15.19591589948422

Отслеживайте COSMOS 2251 DEB в реальном времени с AllMySat

Download on the App Store